• In Hungary
  • List of Countries
  • For 7 days
  • Water Temperature
  • Satellite Maps
  • Weather Map
  • News
  • Weather Widgets
  • user-avatar
    Login

    Hourly Weather Emsdetten

    Today, 24 January, Wednesday

    Time Temperature Precipitation Wind Pressure Humidity
    00:00 +8°C° 0.1 mm 7 mps 758 mmHg 88%
    01:00 +8°C° 0 mm 7 mps 759 mmHg 88%
    02:00 +9°C° 0.1 mm 7 mps 759 mmHg 89%
    03:00 +9°C° 0.1 mm 7 mps 758 mmHg 89%
    04:00 +9°C° 0.1 mm 7 mps 758 mmHg 90%
    05:00 +9°C° 0 mm 7 mps 758 mmHg 90%
    06:00 +9°C° 0 mm 7 mps 758 mmHg 90%
    07:00 +9°C° 0 mm 7 mps 758 mmHg 90%
    08:00 +10°C° 0 mm 7 mps 757 mmHg 88%
    09:00 +10°C° 0 mm 7 mps 757 mmHg 87%
    10:00 +10°C° 0 mm 7 mps 757 mmHg 86%
    11:00 +11°C° 0 mm 8 mps 756 mmHg 82%
    12:00 +12°C° 0 mm 8 mps 756 mmHg 78%
    13:00 +12°C° 0 mm 9 mps 755 mmHg 75%
    14:00 +12°C° 0 mm 9 mps 755 mmHg 74%
    15:00 +12°C° 0 mm 9 mps 754 mmHg 73%
    16:00 +12°C° 0 mm 9 mps 754 mmHg 72%
    17:00 +12°C° 0 mm 9 mps 753 mmHg 72%
    18:00 +11°C° 0 mm 10 mps 753 mmHg 73%
    19:00 +11°C° 0 mm 10 mps 753 mmHg 74%
    20:00 +11°C° 0.2 mm 10 mps 753 mmHg 75%
    21:00 +10°C° 0.2 mm 9 mps 753 mmHg 76%
    22:00 +10°C° 0.2 mm 9 mps 753 mmHg 77%
    23:00 +10°C° 0.5 mm 8 mps 753 mmHg 80%

    Tomorrow, 25 January, Thursday

    Time Temperature Precipitation Wind Pressure Humidity
    00:00 +10°C° 0.5 mm 7 mps 753 mmHg 83%
    01:00 +9°C° 0.5 mm 5 mps 754 mmHg 85%
    02:00 +9°C° 0.3 mm 5 mps 754 mmHg 86%
    03:00 +8°C° 0.3 mm 5 mps 754 mmHg 86%
    04:00 +8°C° 0.3 mm 5 mps 754 mmHg 86%
    05:00 +8°C° 0.1 mm 5 mps 754 mmHg 86%
    06:00 +7°C° 0.1 mm 4 mps 754 mmHg 87%
    07:00 +7°C° 0.1 mm 4 mps 754 mmHg 87%
    08:00 +7°C° 0 mm 4 mps 754 mmHg 86%
    09:00 +7°C° 0 mm 4 mps 754 mmHg 85%
    10:00 +7°C° 0 mm 4 mps 755 mmHg 85%
    11:00 +7°C° 0.1 mm 4 mps 755 mmHg 81%
    12:00 +8°C° 0.1 mm 4 mps 754 mmHg 77%
    13:00 +8°C° 0.1 mm 4 mps 754 mmHg 74%
    14:00 +8°C° 0.2 mm 4 mps 754 mmHg 76%
    15:00 +9°C° 0.2 mm 3 mps 754 mmHg 78%
    16:00 +8°C° 0.2 mm 3 mps 754 mmHg 80%
    17:00 +8°C° 0.2 mm 3 mps 754 mmHg 83%
    18:00 +7°C° 0.2 mm 3 mps 754 mmHg 85%
    19:00 +7°C° 0.2 mm 3 mps 754 mmHg 88%
    20:00 +7°C° 0.1 mm 3 mps 755 mmHg 89%
    21:00 +6°C° 0.1 mm 2 mps 755 mmHg 90%
    22:00 +6°C° 0.1 mm 2 mps 755 mmHg 91%
    23:00 +6°C° 0 mm 2 mps 755 mmHg 91%

    Day after tomorrow, 26 January, Friday

    Time Temperature Precipitation Wind Pressure Humidity
    00:00 +6°C° 0 mm 2 mps 755 mmHg 92%
    01:00 +5°C° 0 mm 2 mps 756 mmHg 92%
    02:00 +5°C° 0 mm 2 mps 756 mmHg 93%
    03:00 +5°C° 0 mm 2 mps 756 mmHg 93%
    04:00 +5°C° 0 mm 2 mps 756 mmHg 94%
    05:00 +4°C° 0 mm 2 mps 757 mmHg 94%
    06:00 +4°C° 0 mm 2 mps 757 mmHg 94%
    07:00 +4°C° 0 mm 2 mps 757 mmHg 94%
    08:00 +4°C° 0 mm 2 mps 757 mmHg 93%
    09:00 +4°C° 0 mm 2 mps 758 mmHg 92%
    10:00 +3°C° 0 mm 3 mps 758 mmHg 91%
    11:00 +4°C° 0 mm 3 mps 758 mmHg 87%
    12:00 +5°C° 0 mm 3 mps 759 mmHg 84%
    13:00 +7°C° 0 mm 3 mps 759 mmHg 80%
    14:00 +7°C° 0 mm 2 mps 759 mmHg 81%
    15:00 +7°C° 0 mm 2 mps 760 mmHg 81%
    16:00 +7°C° 0 mm 2 mps 760 mmHg 81%
    17:00 +6°C° 0 mm 2 mps 761 mmHg 84%
    18:00 +5°C° 0 mm 2 mps 761 mmHg 86%
    19:00 +4°C° 0 mm 2 mps 761 mmHg 89%
    20:00 +4°C° 0 mm 2 mps 762 mmHg 90%
    21:00 +4°C° 0 mm 2 mps 763 mmHg 91%
    22:00 +3°C° 0 mm 2 mps 763 mmHg 91%
    23:00 +3°C° 0 mm 2 mps 764 mmHg 92%

    27 January, Saturday

    Time Temperature Precipitation Wind Pressure Humidity
    00:00 +3°C° 0 mm 2 mps 764 mmHg 93%
    01:00 +3°C° 0 mm 2 mps 764 mmHg 93%
    02:00 +3°C° 0 mm 1 mps 765 mmHg 94%
    03:00 +3°C° 0 mm 1 mps 765 mmHg 94%
    04:00 +3°C° 0 mm 1 mps 765 mmHg 95%
    05:00 +3°C° 0 mm 1 mps 766 mmHg 95%
    06:00 +2°C° 0 mm 2 mps 766 mmHg 95%
    07:00 +1°C° 0 mm 2 mps 766 mmHg 95%
    08:00 +2°C° 0 mm 2 mps 767 mmHg 95%
    09:00 +2°C° 0 mm 2 mps 768 mmHg 94%
    10:00 +3°C° 0 mm 2 mps 768 mmHg 93%
    11:00 +3°C° 0 mm 3 mps 768 mmHg 89%
    12:00 +4°C° 0 mm 3 mps 769 mmHg 85%
    13:00 +5°C° 0 mm 4 mps 769 mmHg 81%
    14:00 +5°C° 0 mm 3 mps 769 mmHg 81%
    15:00 +5°C° 0 mm 3 mps 769 mmHg 81%
    16:00 +5°C° 0 mm 3 mps 769 mmHg 81%
    17:00 +4°C° 0 mm 3 mps 769 mmHg 84%
    18:00 +3°C° 0 mm 3 mps 769 mmHg 87%
    19:00 +3°C° 0 mm 4 mps 769 mmHg 90%
    20:00 +3°C° 0 mm 4 mps 769 mmHg 90%
    21:00 +3°C° 0 mm 4 mps 770 mmHg 89%
    22:00 +2°C° 0 mm 5 mps 770 mmHg 88%
    23:00 +2°C° 0 mm 5 mps 770 mmHg 85%

    28 January, Sunday

    Time Temperature Precipitation Wind Pressure Humidity
    00:00 +2°C° 0 mm 6 mps 769 mmHg 83%
    01:00 +2°C° 0 mm 6 mps 769 mmHg 80%
    02:00 +3°C° 0.1 mm 6 mps 769 mmHg 79%
    03:00 +3°C° 0.1 mm 7 mps 769 mmHg 78%
    04:00 +3°C° 0.1 mm 7 mps 768 mmHg 77%
    05:00 +3°C° 0.2 mm 7 mps 768 mmHg 80%
    06:00 +3°C° 0.2 mm 6 mps 769 mmHg 83%
    07:00 +3°C° 0.2 mm 6 mps 769 mmHg 86%
    08:00 +4°C° 0 mm 6 mps 769 mmHg 87%
    09:00 +4°C° 0 mm 6 mps 769 mmHg 89%
    10:00 +4°C° 0 mm 6 mps 769 mmHg 90%
    11:00 +5°C° 0 mm 6 mps 770 mmHg 90%
    12:00 +7°C° 0 mm 6 mps 770 mmHg 89%
    13:00 +7°C° 0 mm 6 mps 770 mmHg 89%
    14:00 +7°C° 0 mm 6 mps 770 mmHg 89%
    15:00 +7°C° 0 mm 5 mps 770 mmHg 89%
    16:00 +8°C° 0 mm 5 mps 770 mmHg 88%
    17:00 +8°C° 0 mm 6 mps 770 mmHg 90%
    18:00 +8°C° 0 mm 6 mps 770 mmHg 91%
    19:00 +8°C° 0 mm 6 mps 770 mmHg 93%
    20:00 +8°C° 0 mm 6 mps 770 mmHg 93%
    21:00 +8°C° 0 mm 6 mps 770 mmHg 94%
    22:00 +8°C° 0 mm 5 mps 771 mmHg 94%
    23:00 +8°C° 0 mm 5 mps 770 mmHg 94%

    29 January, Monday

    Time Temperature Precipitation Wind Pressure Humidity
    00:00 +8°C° 0 mm 5 mps 770 mmHg 94%
    01:00 +8°C° 0 mm 6 mps 770 mmHg 94%
    02:00 +8°C° 0 mm 6 mps 770 mmHg 93%
    03:00 +8°C° 0 mm 6 mps 770 mmHg 92%
    04:00 +9°C° 0 mm 6 mps 769 mmHg 91%
    05:00 +9°C° 0 mm 6 mps 769 mmHg 90%
    06:00 +8°C° 0 mm 6 mps 769 mmHg 89%
    07:00 +8°C° 0 mm 6 mps 769 mmHg 88%
    08:00 +8°C° 0 mm 7 mps 769 mmHg 88%
    09:00 +8°C° 0 mm 7 mps 769 mmHg 87%
    10:00 +8°C° 0 mm 7 mps 769 mmHg 87%
    11:00 +8°C° 0 mm 7 mps 769 mmHg 85%
    12:00 +8°C° 0 mm 7 mps 769 mmHg 84%
    13:00 +9°C° 0 mm 7 mps 769 mmHg 83%
    14:00 +9°C° 0 mm 7 mps 768 mmHg 82%
    15:00 +9°C° 0 mm 6 mps 768 mmHg 82%
    16:00 +9°C° 0 mm 6 mps 768 mmHg 82%
    17:00 +8°C° 0 mm 6 mps 767 mmHg 83%
    18:00 +8°C° 0 mm 5 mps 767 mmHg 84%
    19:00 +8°C° 0 mm 5 mps 767 mmHg 86%
    20:00 +8°C° 0 mm 5 mps 767 mmHg 87%
    21:00 +7°C° 0 mm 5 mps 767 mmHg 88%
    22:00 +7°C° 0 mm 6 mps 766 mmHg 89%
    23:00 +7°C° 0 mm 6 mps 766 mmHg 90%
    Show more